WetterOnline ( https://www.wetteronline.de )

Wetter aktuell Bremerhaven

Aktuelles Wetter: Bremerhaven (11m)

6-stündlich | Neueste Meldungen
Ortszeit Temperatur Wetter
Mi, 12.08. 8:00 19.5° C leicht bewölkt
Mi, 12.08. 2:00 22.4° C leicht bewölkt
Di, 11.08. 20:00 30.2° C wolkenlos
Di, 11.08. 14:00 30.5° C wolkenlos
Di, 11.08. 8:00 20.2° C wolkenlos
Di, 11.08. 2:00 22.2° C wolkenlos
Mo, 10.08. 20:00 26.3° C wolkenlos
Mo, 10.08. 14:00 30.4° C leicht bewölkt
Ortszeit Temperatur Wetter
Mi, 12.08. 11:30 26.9° C wolkenlos
Mi, 12.08. 11:20 26.9° C wolkenlos
Mi, 12.08. 11:10 26.1° C wolkenlos
Mi, 12.08. 11:00 25.4° C fast wolkenlos
Mi, 12.08. 10:50 25.4° C fast wolkenlos
Mi, 12.08. 10:40 25.2° C leicht bewölkt
Mi, 12.08. 10:30 24.0° C leicht bewölkt
Mi, 12.08. 10:00 23.0° C fast wolkenlos
Mi, 12.08. 9:30 22.3° C leicht bewölkt
Mi, 12.08. 9:00 21.5° C fast wolkenlos
Mi, 12.08. 8:30 20.3° C wolkig
Mi, 12.08. 8:00 19.5° C leicht bewölkt
Ortszeit Relative Feuchte Sichtweite
Mi, 12.08. 8:00 67% 40 km
Mi, 12.08. 2:00 63% 40 km
Di, 11.08. 20:00 42% 35 km
Di, 11.08. 14:00 41% 45 km
Di, 11.08. 8:00 82% 21 km
Di, 11.08. 2:00 76% 27 km
Mo, 10.08. 20:00 60% 35 km
Mo, 10.08. 14:00 49% 35 km
Ortszeit Relative Feuchte Sichtweite
Mi, 12.08. 11:30 53% 30 km
Mi, 12.08. 11:20 53% -
Mi, 12.08. 11:10 53% -
Mi, 12.08. 11:00 55% 60 km
Mi, 12.08. 10:50 55% -
Mi, 12.08. 10:40 55% -
Mi, 12.08. 10:30 57% 50 km
Mi, 12.08. 10:00 59% 35 km
Mi, 12.08. 9:30 61% 35 km
Mi, 12.08. 9:00 62% 35 km
Mi, 12.08. 8:30 65% -
Mi, 12.08. 8:00 67% 40 km
Ortszeit Niederschlagsmenge Niederschlagsart
Mi, 12.08. 8:00 0.0 l/m2 in 12 Std. -
Mi, 12.08. 2:00 0.1 l/m2 in 6 Std. -
Di, 11.08. 20:00 0.0 l/m2 in 12 Std. -
Di, 11.08. 14:00 0.0 l/m2 in 6 Std. -
Di, 11.08. 8:00 0.0 l/m2 in 12 Std. -
Di, 11.08. 2:00 0.0 l/m2 in 6 Std. -
Mo, 10.08. 20:00 0.1 l/m2 in 12 Std. Regen
Mo, 10.08. 14:00 0.0 l/m2 in 6 Std. -
Ortszeit Niederschlagsmenge Niederschlagsart
Mi, 12.08. 11:30 0.0 l/m2 in 1 Std. -
Mi, 12.08. 11:20 keine Meldung -
Mi, 12.08. 11:10 keine Meldung -
Mi, 12.08. 11:00 0.0 l/m2 in 1 Std. -
Mi, 12.08. 10:50 keine Meldung -
Mi, 12.08. 10:40 keine Meldung -
Mi, 12.08. 10:30 0.0 l/m2 in 1 Std. -
Mi, 12.08. 10:00 0.0 l/m2 in 1 Std. -
Mi, 12.08. 9:30 0.0 l/m2 in 1 Std. -
Mi, 12.08. 9:00 0.1 l/m2 in 1 Std. -
Mi, 12.08. 8:30 0.1 l/m2 in 1 Std. -
Mi, 12.08. 8:00 0.0 l/m2 in 1 Std. -
Ortszeit Stärke Spitze Richtung
km/h Bft. km/h Grad Sektor
Mi, 12.08. 8:00 24 4 35 80° O
Mi, 12.08. 2:00 18 3 32 80° O
Di, 11.08. 20:00 19 3 43 80° O
Di, 11.08. 14:00 22 4 40 100° O
Di, 11.08. 8:00 18 3 29 70° O
Di, 11.08. 2:00 13 3 30 70° O
Mo, 10.08. 20:00 11 2 59 60° NO
Mo, 10.08. 14:00 14 3 29 80° O
Ortszeit Stärke Spitze Richtung
km/h Bft. km/h Grad Sektor
Mi, 12.08. 11:30 14 3 32 100° O
Mi, 12.08. 11:20 14 3 - 100° O
Mi, 12.08. 11:10 18 3 - 100° O
Mi, 12.08. 11:00 19 3 30 90° O
Mi, 12.08. 10:50 19 3 - 90° O
Mi, 12.08. 10:40 14 3 - 90° O
Mi, 12.08. 10:30 19 3 30 90° O
Mi, 12.08. 10:00 17 3 31 90° O
Mi, 12.08. 9:30 14 3 32 100° O
Mi, 12.08. 9:00 18 3 32 90° O
Mi, 12.08. 8:30 18 3 32 90° O
Mi, 12.08. 8:00 24 4 35 80° O
Ortszeit Untergrenze Bedeckung Gattung
total tief tief mittel hoch
Mi, 12.08. 8:00 9000 m 8/8 0/8 - - -
Mi, 12.08. 2:00 10500 m 5/8 0/8 - - -
Di, 11.08. 20:00 - 0/8 0/8 - - -
Di, 11.08. 14:00 - 0/8 0/8 - - -
Di, 11.08. 8:00 12000 m 0/8 0/8 - - -
Di, 11.08. 2:00 - 0/8 0/8 - - -
Mo, 10.08. 20:00 - 0/8 0/8 - - -
Mo, 10.08. 14:00 2700 m 2/8 2/8 - - -
Ortszeit Bedeckungsgrad in Achtel und Wolkenuntergrenze
Mi, 12.08. 11:30 keine Wolken
Mi, 12.08. 11:20 keine Wolken
Mi, 12.08. 11:10 keine Wolken
Mi, 12.08. 11:00 2(10500m)
Mi, 12.08. 10:50 2(10500m)
Mi, 12.08. 10:40 4(10500m)
Mi, 12.08. 10:30 3(10500m)
Mi, 12.08. 10:00 1(9000m)
Mi, 12.08. 9:30 4(10500m) 3(10500m)
Mi, 12.08. 9:00 2(10500m)
Mi, 12.08. 8:30 2(9000m) 6(10500m) 8(10500m)
Mi, 12.08. 8:00 4(9000m) 7(10500m) 8(10500m)
Ortszeit Luftdruck NN (hPa) Tendenz (hPa in 3 Std.)
Mi, 12.08. 8:00 1018 - 0,1
Mi, 12.08. 2:00 1019 + 0,4
Di, 11.08. 20:00 1017 - 0,5
Di, 11.08. 14:00 1019 - 0,3
Di, 11.08. 8:00 1019 + 0,2
Di, 11.08. 2:00 1019 + 1,2
Mo, 10.08. 20:00 1017 + 0,6
Mo, 10.08. 14:00 1017 - 0,5
Ortszeit Luftdruck NN (hPa) Tendenz (hPa in 3 Std.)
Mi, 12.08. 11:30 1018 - 0,2
Mi, 12.08. 11:20 1018 keine Meldung
Mi, 12.08. 11:10 1018 keine Meldung
Mi, 12.08. 11:00 1018 - 0,1
Mi, 12.08. 10:50 1018 keine Meldung
Mi, 12.08. 10:40 1018 keine Meldung
Mi, 12.08. 10:30 1018 - 0,3
Mi, 12.08. 10:00 1018 - 0,2
Mi, 12.08. 9:30 1018 - 0,2
Mi, 12.08. 9:00 1018 0,0
Mi, 12.08. 8:30 1018 + 0,1
Mi, 12.08. 8:00 1018 - 0,1
Ortszeit Schneehöhe (cm)
Mi, 12.08. 8:00 -
Mi, 12.08. 2:00 -
Di, 11.08. 20:00 -
Di, 11.08. 14:00 -
Di, 11.08. 8:00 -
Di, 11.08. 2:00 -
Mo, 10.08. 20:00 -
Mo, 10.08. 14:00 -
Ortszeit Schneehöhe (cm)
Mi, 12.08. 11:30 -
Mi, 12.08. 11:20 -
Mi, 12.08. 11:10 -
Mi, 12.08. 11:00 -
Mi, 12.08. 10:50 -
Mi, 12.08. 10:40 -
Mi, 12.08. 10:30 -
Mi, 12.08. 10:00 -
Mi, 12.08. 9:30 -
Mi, 12.08. 9:00 -
Mi, 12.08. 8:30 -
Mi, 12.08. 8:00 -
Link zu dieser Seite / Seite empfehlen

Das Wetter in ...